051027 D70  0.8-  1.1+    061222 372  1.7+  0.7+    070405 B30  1.9+  1.5+  

051027 D70  1.1+  0.1+    061222 372  1.0+  1.3+    070405 B30  0.1+  0.9+  

051028 834  0.5-  0.6+    061223 235  0.3+  0.6-    070406 B30  0.6-  0.5+  

051028 834  0.4-  0.6+    061226 232  0.4+  0.3+    070406 B30  0.7+  0.5+  

051029 I05  0.3-  0.5+    061226 B20  0.4-  0.7+    070406 B30  1.5+  1.2+  

051101 J76  0.8-  0.7+    061226 B20  0.3-  0.3+    070406 232  0.8+  0.5-  

051101 J76  0.8-  0.5+    061226 B20  0.0   0.9+    070406 232  1.4+  0.2+  

051101 J76  0.5-  1.0+    061226 945  0.5-  0.7+    070406 A24  0.6+  1.3-  

051103 834  0.6-  0.6+    061226 945  0.2-  0.9+    070406 A24 (3.1+  4.5+) 

051103 834  0.5-  0.8+    061226 232  0.2-  0.5+    070406 232  1.3+  0.0   

051103 367  0.1-  0.8+    061226 945  0.2-  0.8+    070406 A32  0.7+  0.6+  

051103 367  0.0   0.7+    061226 945  0.1-  0.9+    070407 B30  0.5-  1.3+  

051103 367  0.1+  1.0+    061226 130  0.4+  0.2+    070407 A10  1.1+  0.2+  

051105 I05  0.6-  0.5+    061226 130  0.0   0.2+    070407 A10  1.1+  1.0+  

051105 834  0.6-  0.6+    061226 130  0.5+  0.3+    070407 B30  0.5+  0.1-  

051105 834  0.8-  0.6+    061226 130  0.5+  0.1+    070407 B30  1.3+  0.4-  

051105 349  0.0   0.7+    061226 945  0.5-  1.0+    070408 473  0.8+  0.5+  

051105 349  0.2-  0.7+    061226 232  0.3-  0.5+    070408 473  0.8+  0.5+  

051105 349  0.0   0.8+    061226 945  0.4-  0.5+    070408 A10  0.7+  0.2-  

051105 939  0.4-  0.6+    061226 945  0.0   0.7+    070408 473  0.8+  0.4+  

051105 939  0.3-  0.2+    061226 945  0.3-  0.6+    070408 A10  0.6+  0.4+  

051105 939  0.5-  0.2-    061227 945  0.1-  0.3+    070408 A10  1.2+  0.9+  

051106 213  0.5-  0.8+    061227 945  0.3-  0.6+    070408 A10  1.3+  1.5+  

051106 213  0.6-  0.7+    061227 349  0.2+  0.8+    070408 A24 (5.7+  2.3+) 

051106 213  0.2-  0.6+    061227 349  0.3+  0.8+    070408 A24  2.0+  1.2+  

051112 844  0.2+  0.2+    061227 349  0.3+  0.7+    070408 A24  1.7+  0.2+  

051112 844  0.1+  0.2+    061228 A06  0.4+  0.2+    070408 B20  0.8+  0.4+  

051112 I05  0.1+  0.4+    061228 A06  0.2+  0.2-    070408 B20  0.5+  0.2+  

051112 844  0.2+  0.2+    061228 A06  0.5+  0.1+    070408 A24  1.6+  1.4+  

051112 844  0.0   0.2+    061228 H47  0.4+  0.5+    070408 B20  0.6+  0.0   

051112 844  0.3+  0.2+    061228 H47  0.2+  0.7+    070408 A24  0.8-  0.8-  

051114 I77  0.3-  0.4+    061228 J79  1.0-  0.1+    070409 215  1.2+  1.3+  

051114 I77  0.1+  0.4+    061228 J79  1.4-  0.6+    070409 215  1.1+  0.7+  

051114 I77  0.4-  0.4+    061228 J79  1.4+  2.1+    070409 215  0.5+  0.3+  

051120 294  1.5+  0.4-    061229 B20  0.1-  0.3+    070409 A24  0.7+  0.4+  

051121 294  1.7+  0.2-    061229 B20  0.2+  0.2+    070409 A24  0.7+  0.5+  

051124 I05  0.3-  0.5+    061229 B20  1.0-  0.1+    070409 A24  0.2+  0.8+  

051125 D83  0.4-  0.4+    061229 473  0.4+  0.7+    070409 A24  0.7+  0.8+  

051125 D83  0.5-  0.4+    061229 473  0.3+  0.7+    070409 A24  0.3+  0.7+  

051125 D83  0.7-  0.4+    061229 473  0.2+  0.6+    070409 A24  0.7+  0.5+  

051125 D83  0.7-  0.3+    061230 939  0.0   1.7+    070409 A24  0.5+  0.0   

051126 834  0.4-  1.0+    061230 939  0.3-  1.1+    070410 A24  1.0+  0.4+  

051126 834  0.1-  0.7+    061230 939  0.8-  0.6+    070410 A24  0.8+  0.2+  

051126 J97  0.5+  0.5-    061230 232  0.3-  0.7+    070410 A24  0.8+  0.1+  

051126 939  0.0   0.2-    061230 232  0.2-  0.9+    070410 A24  0.9+  0.3+  

051126 939  0.0   0.2-    061230 232  0.1-  0.7+    070410 A24  1.5+  1.7-  

051126 939  0.2-  0.1+    061230 213  0.8+  0.5-    070410 A24  1.9+  0.9-  

051127 349  0.0   0.3+    061230 213  0.4+  0.5-    070411 A32  0.7+  0.7+  

051127 349  0.1+  0.2+    061230 213  0.0   0.4+    070411 A32  0.8+  1.5+  

051127 349  0.2-  0.2+    061230 372  0.6+  0.8-    070411 A32  0.7+  2.0+  

051127 D88  1.0-  0.2+    061230 J67  0.2+  0.4-    070411 A24 (0.4-  3.5+) 

051127 D88  0.8-  0.6+    061230 J67  0.4+  0.0     070411 A24  0.2-  0.6+  

051127 D88  0.1-  0.6+    061230 J67  0.3-  1.1+    070411 A24  0.6-  1.8+  

051130 213  0.2-  0.1+    061231 232  0.7+  0.2+    070411 A24  2.1-  0.8+  

051130 213  0.3-  0.2-    061231 232  0.5+  0.4+    070415 B30  0.1+  0.5+  

051130 213  0.3-  0.0     061231 232  0.8+  0.7+    070415 B30  0.1-  0.7+  

051201 J97  0.5-  0.1+    061231 619  0.5-  1.2+    070415 B30  0.1-  0.3+  

051201 J97  1.1-  0.1+    061231 619  0.7+  0.2+    070415 B30  0.0   0.1-  

051202 834  0.7-  0.6+    061231 619  0.6+  0.1-    070415 J78  0.5+  0.5+  

051202 H47  0.2+  0.7-    061231 619  0.1-  0.3-    070416 H47  0.7+  1.3+  

051202 H47  1.1+  0.2-    061231 619  0.6+  0.7+    070416 H47  1.2+  0.1+  

051202 834  0.2-  0.4+    061231 619  0.0   0.6+    070417 J53  0.7+  0.5+  

051203 I05  0.2-  0.2+    061231 619  0.2-  0.7+    070417 J53  0.5+  0.2+  

051203 232  0.2-  0.4+    061231 619  0.6-  0.3+    070417 J53  1.1+  0.0   

051203 232  0.1-  0.7+    061231 619  0.7+  1.6+    070429 349  0.7+  0.5+  

051203 232  0.1-  0.4+    061231 619  0.6+  0.9+    070429 349  1.1+  1.0+  

051203 213  0.7-  0.2+    061231 619  0.4-  0.7+    070430 A33  0.8+  0.3+  

051203 213  0.7-  0.6+    2007/                     070508 473 (1.2+  7.9-) 

051203 213  0.6-  0.5+    070101 213  0.1-  1.4+    070508 473 (0.5+  7.8-) 

051203 939  0.4-  0.4-    070101 213  0.3-  2.0+    070511 J70  0.6-  1.9+  

051203 939  0.3-  0.2-    070101 213  0.5-  1.1+    070511 J70  1.1+  1.2+  

051203 939  0.3-  0.0     070101 213 (1.4-  3.9+)   070511 J70  2.0+  0.6+  

051204 E12  0.1-  0.3+    070109 703  0.9-  1.9+    070516 703  1.3-  2.6+  

051204 E12  0.2-  0.2+    070109 703  1.2-  2.7+    070516 703  0.0   2.3+  

051204 E12  0.1-  0.3+    070109 703 (1.3-  3.2+)   070516 703  0.9+  0.8+  

051204 E12  0.1-  0.3+    070110 704  1.2+  0.3+    070516 703  0.2+  0.3-  

051210 I05  0.4-  0.5+    070110 704  0.7+  0.2+    070527 J70 (0.1-  3.8+) 

051210 232  0.4-  0.5+    070110 704  0.1-  0.5+    070527 J70 (4.5-  3.1-) 

051210 232  0.2-  0.4+    070110 704  0.2+  0.8+    2008/                   

051210 232  0.6-  0.2-    070110 704  0.1-  1.2+    080210 204  1.1-  0.6+  

051210 J97  0.0   0.3+    070113 J76  0.4+  0.6+    080210 204  1.1-  2.0+  

051210 J97  0.8+  0.2+    070113 J76  0.9+  0.4+    080302 204  1.3-  1.3+  

051211 213  0.0   0.4+    070113 J76  0.4+  0.7+    080303 204  1.4-  0.3+  



NAKANO

         **** Don't distribute anyone except personal use only ****

                (C) Copyright 2008 OAA/ComputingSection

write mail from CFAD0::NAKANO on 2008-03-30 06:43:41(JST).

 

    C/2005 E2 (McNaught)

Epoch 2006 Mar. 6.0 TT = JDT 2453800.5  

T 2006 Feb. 23.47589 TT                                 Nakano

q   1.5195949            (2000.0)            P               Q

z  -0.0000986      Peri.   39.96758     +0.87855076     -0.47367272

 +/-0.0000028      Node   347.84837     +0.32833009     +0.69239760

e   1.0001499      Incl.   16.98854     +0.34691198     +0.54426070

From 1209 observations 2005 Mar. 12-2007 May 16, mean residual 0".76.

   Nongravitational parameters A1 = -0.14 +/- 0.07, A2 = -1.0237 +/- 0.0650.

   (1/a)org.= -0.000032, (1/a)fut.= -0.002509 (+/-0.000003), Q= 8.

            



NAKANO

         **** Don't distribute anyone except personal use only ****

                (C) Copyright 2007 OAA/ComputingSection

write mail from CFAD0::NAKANO on 2007-06-06 06:36:26(JST).

 



    C/2005 E2 (McNaught)

Epoch 2006 Mar. 6.0 TT = JDT 2453800.5  

T 2006 Feb. 23.47500 TT                                 Nakano

q   1.5195868            (2000.0)            P               Q

z  -0.0000495      Peri.   39.96753     +0.87855503     -0.47366445

 +/-0.0000036      Node   347.84786     +0.32832226     +0.69240163

e   1.0000752      Incl.   16.98856     +0.34690856     +0.54426278

From 969 observations 2005 Mar. 12-2007 Feb. 7, mean residual 0".66.

   Nongravitational parameters A1 = +1.33 +/- 0.09, A2 = -2.2040 +/- 0.0749.

   (1/a)org.= -0.000034, (1/a)fut.= -0.002438 (+/-0.000004), Q= 7.



NAKANO

         **** Don't distribute anyone except personal use only ****

                (C) Copyright 2007 OAA/ComputingSection

write mail from CFAD0::NAKANO on 2007-02-11 07:48:26(JST).

 



    C/2005 E2 (McNaught)

Epoch 2006 Mar. 6.0 TT = JDT 2453800.5  

T 2006 Feb. 23.47531 TT                                 Nakano

q   1.5195897            (2000.0)            P               Q

z  -0.0000673      Peri.   39.96786     +0.87855368     -0.47366685

 +/-0.0000065      Node   347.84769     +0.32832375     +0.69240108

e   1.0001023      Incl.   16.98856     +0.34691058     +0.54426139

From 765 observations 2005 Mar. 12-2006 Dec. 1, mean residual 0".64.

   Nongravitational parameters A1 = +0.82 +/- 0.14, A2 = -1.6580 +/- 0.1243.

   (1/a)org.= -0.000032, (1/a)fut.= -0.002470 (+/-0.000006), Q= 7.





NAKANO

         **** Don't distribute anyone except personal use only ****

                (C) Copyright 2006 OAA/ComputingSection

write mail from CFAD0::NAKANO on 2006-12-06 04:13:52(JST).

 

    C/2005 E2 (McNaught)

Epoch 2006 Mar. 6.0 TT = JDT 2453800.5  

T 2006 Feb. 23.47538 TT                                 Nakano

q   1.5195960            (2000.0)            P               Q

z  -0.0001057      Peri.   39.96787     +0.87855424     -0.47366579

 +/-0.0000013      Node   347.84761     +0.32832323     +0.69240215

e   1.0001606      Incl.   16.98849     +0.34690965     +0.54426095

From 721 observations 2005 Mar. 12-2006 Sept. 14, mean residual 0".61.

   (1/a)org.= -0.000002, (1/a)fut.= -0.002544 (+/-0.000001), Q= 8.



NAKANO

         **** Don't distribute anyone except personal use only ****

                (C) Copyright 2006 OAA/ComputingSection

write mail from CFAD0::NAKANO on 2006-09-25 05:53:58(JST).

 





    C/2005 E2 (McNaught)

Epoch 2006 Mar. 6.0 TT = JDT 2453800.5  

